User: anonymous   Login
Location: Obersdorf
(47.4079°N, 10.2781°E)
Time: 02:57:48
(UTC+01:00)
Language:

NOAA 18 - Orbit

View from above orbital plane
View from above orbital plane
View from above satellite
View from above satellite

Ground track
Ground track

The orbit data is extracted from the following two-line orbital elements,

1 28654U 05018A   21332.76911895  .00000112  00000-0  84540-4 0  9995
2 28654  98.9760  38.1357 0014477 174.9210 185.2111 14.12661432851733
Epoch (UTC): 28 November 2021 18:27:31
Eccentricity: 0.0014477
inclination: 98.9760°
perigee height: 840 km
apogee height: 861 km
right ascension of ascending node: 38.1357°
argument of perigee: 174.9210°
revolutions per day: 14.12661432
mean anomaly at epoch: 185.2111°
orbit number at epoch: 85173

The dashed part of the orbit path shows where the satellite is in the earth's shadow,  

DLR